Погода в Ронове-над-Доубравой

Чехия     49°53′17″N   15°31′55″E
темп.,
°C
ветер,
м/с
пор.,
м/с
влажн.,
%
обл.,
%
осадки,
мм/ч
давл.,
гПа
погр.,
м
19 апреля, пн
пн1923:00+5ссв1189100 0.0 102021
02:00+4ссв1192100 0.0 102016
05:00+3св1193100 0.0 101911
08:00+5зсз1184100 0.0 1019123
11:00+10ссв3465100 0.0 1018967
14:00+10св5572100 0.2 10181059
17:00+7ссз2592100 0.6 1018337
20:00+7зсз229297 0.7 101727
20 апреля, вт
вт2023:00+5зюз1194100 0.1 101710
02:00+4з11956 0.1 101711
05:00+3зюз11969 0.0 101710
08:00+6зюз119088 0.0 1017140
11:00+10зсз217425 0.0 1017484
14:00+14сз124813 0.1 10151665
17:00+14сз225032 0.0 10141397
20:00+9сз227470 0.0 101411
21 апреля, ср
ср2123:00+7юз228830 0.9 101511
02:00+6юз22895 0.9 101513
05:00+5юз229017 0.0 101512
08:00+8зюз23845 0.0 1015207
11:00+13зсз34670 0.4 1014972
14:00+15зсз355617 1.1 10131492
17:00+15з355033 0.2 10121802
20:00+10зсз237364 0.5 101221
22 апреля, чт
чт2223:00+7з2276100 0.0 101420
02:00+5з488534 0.0 1015174
05:00+5сз5884100 0.0 1016710
08:00+4сз4871100 0.8 1017709
11:00+6зсз5655100 0.0 10171070
14:00+9зсз5845100 0.0 10171936
17:00+10зсз61044100 0.0 10162288
20:00+5сз49622 0.0 1018233
23 апреля, пт
пт2323:00+2зюз357683 0.0 101995
02:00+2зюз310805 0.0 1020232
05:000з3886100 0.0 1021217
08:00+3зсз58756 0.0 1023611
11:00+6сз6862100 0.1 10241557
14:00+7сз676196 0.2 10241295
17:00+8сз675884 0.2 10241554
20:00+4зсз22792 0.2 102621